STARLINK-11266, 60732

Orbit data source: Space-Track

STARLINK-11266, 60732 is a payload satellite owned by SpaceX/Seattle (US) in LEO that was launched on Wed, 28 Aug 2024 UTC via an FALCON 9 launch vehicle from the Air Force Eastern Test Range (AFETR). Payload-class satellites include a variety of spacecraft equipped with specific instruments for various scientific and technological missions. These include communications satellites like Starlink; space stations such as the ISS; scientific satellites like the Hubble; Earth observation satellites from companies like Planet Labs, Umbra, and HawkEye 360; GPS; miniature CubeSats for education and research; and military/defense satellites.

Loading next visibility...
Identifier
60732, 2024-152N
Orbit
LEO
Country
Flag of USUS
Related business
Manufacturer
SpaceX/Seattle
Mission
Operational Commercial Communications
Bus & Motor
STARLINK V2MD, Unknown motor
Mass
960 kg wet, ~910 kg dry
Launch date (UTC)
2024-08-28 (2 years ago)
Launch vehicle
FALCON 9
Launch site
Air Force Eastern Test Range (AFETR)
Object type
Payload
Rocket body
Debris
Shape & HBR
Box + 2 Pan, 18.1 m
Radar Cross Section
36.964 m², Large (>1 m²)

Expand to show TLE details & history
Last TLE update: 18 hours ago

TLE from 18 hours ago
0 STARLINK-11266
1 60732U 24152N   26126.46094388 -.00000705  00000-0 -96204-6 0  9992
2 60732  53.1589 191.0869 0001491  83.1869 276.9318 15.69688418 97913
Epoch: 2026-05-06T11:03Z
TLE epoch observation values (Epoch: 2026-05-06T11:03:45.551Z)
Latitude
-0.00005°
Longitude
160.82596°
Altitude
360.582 km
Speed
7.694 km/s
True Right ascension
12h 44m 20s
True Declination
0° 00' 00"
Sunlit
Object was in full shadow at epoch
Visualization orbit readout
Latitude
Unknown
Longitude
Unknown
Altitude
Unknown
Speed
Unknown
Apparent Right ascension
Unknown
Apparent Declination
Unknown
Sunlit
N/A
Visualization observer readout
Local Sidereal Time
13:15:55
Azimuth
Unknown
Elevation
Unknown
Doppler factor
Unknown
Orbital elements
Apogee altitude
361.054 km
Perigee altitude
359.045 km
Semi-major axis
6,738.186 km
Eccentricity
0.00015
Inclination
53.1589°
RAAN
191.0869°
Arg. of periapsis
83.1869°
True anomaly
276.91484°
Mean anomaly
276.9318°
Eccentric anomaly
276.92332°
Mean motion
3.924 °/min
Orbital period
91.74 mins
BSTAR
-9.6204e-7
Loading maneuver chart data...
Computing Atmospheric mass density...
Loading historical data...
Loading historical data...
Loading historical data...
Loading historical data...
Loading historical data...
Loading historical data...
Loading historical data...

Documentation

Showing up to 5 results
|